Regional Weather Roundup
Issued by NWS

Home | Current Version | Previous Version | Graphics & Text | Print | Product List | Glossary On
Versions: 1 2 3 4 5 6 7 8 9 10 11 12 13 14 15 16 17 18 19 20 21 22 23 24 25 26 27 28 29 30 31 32 33 34 35 36 37 38 39 40 41 42 43 44 45 46 47 48 49 50
000
ASUS43 KMPX 232001
RWRMN
WEATHER ROUNDUP FOR MINNESOTA
NATIONAL WEATHER SERVICE TWIN CITIES/CHANHASSEN MN
200 PM CST THU NOV 23 2017


NOTE: "FAIR" INDICATES FEW OR NO CLOUDS BELOW 12,000 FEET WITH NO
SIGNIFICANT WEATHER AND/OR OBSTRUCTIONS TO VISIBILITY. N/A MEANS
CURRENT SKY AND/OR WEATHER CONDITIONS ARE NOT AVAILABLE.

MNZ060>063-068>070-232100-
   Twin Cities Metro

CITY           SKY/WX    TMP DP  RH WIND       PRES   REMARKS
TWIN CITIES    SUNNY     43  23  45 SW5       29.85F
ST PAUL        SUNNY     44  22  41 VRB6      29.87F
CRYSTAL        SUNNY     43  21  41 W6        29.84F
BLAINE         SUNNY     45  21  39 SW6       29.84F
LAKEVILLE      SUNNY     45  25  45 CALM      29.85F
EDEN PRAIRIE   SUNNY     44  22  41 SW7       29.84F
SOUTH ST PAUL  SUNNY     44  22  40 SW5       29.85F
LAKE ELMO      FAIR      43  23  45 SW6       29.86F
$$
MNZ001>005-007-008-013>017-022>024-027-028-232100-
   Northwest Minnesota

CITY           SKY/WX    TMP DP  RH WIND       PRES   REMARKS
BEMIDJI        PTSUNNY   28  26  96 S8        29.70F WCI  19
HALLOCK        CLOUDY    32  30  93 S17       29.63F FOG     WCI  21
ROSEAU         CLOUDY    30  27  86 SE10      29.66F WCI  21
WARROAD        CLOUDY    30  25  80 SE8       29.67F WCI  23
CROOKSTON      SUNNY     37  30  75 S13       29.66F
FOSSTON        MOSUNNY   32  30  93 SE10      29.67F WCI  24
DETROIT LAKES  SUNNY     39  30  70 SE13      29.69F
MOORHEAD       SUNNY     41  27  56 S14       29.69F
PARK RAPIDS    SUNNY     39  28  64 S10       29.71F
MAHNOMEN       FAIR      37  31  78 S8        29.67F
$$
MNZ006-009>011-018-025>026-232100-
   North Central Minnesota

CITY           SKY/WX    TMP DP  RH WIND       PRES   REMARKS
BAUDETTE       MOSUNNY   31  23  72 S8        29.69F WCI  23
FLAG ISLAND    CLOUDY    25  21  86 S10       29.69F WCI  15
INTL FALLS     CLOUDY    29  20  69 E3        29.71F
WASKISH        CLOUDY    27  25  93 SE5       29.71F WCI  21
BIG FORK       PTSUNNY   36  27  69 S7        29.72F
LONGVILLE      CLOUDY    36  25  64 S3        29.74F
GRAND RAPIDS   SUNNY     35  24  64 S8        29.76F WCI  29
CRANE LAKE     CLOUDY    30  21  69 CALM      29.76F
ORR            MOSUNNY   34  21  60 CALM      29.70F
COOK           SUNNY     34  25  69 S7        29.73F WCI  28
WALKER         CLOUDY    33  24  69 S7        29.72F WCI  27
$$
MNZ012-019>021-037-232100-
   Northeast Minnesota

CITY           SKY/WX    TMP DP  RH WIND       PRES   REMARKS
DULUTH         SUNNY     34  25  69 SW10      29.76F WCI  26
ELY            PTSUNNY   32  21  64 CALM      29.73F
HIBBING        SUNNY     34  22  61 VRB5      29.74F WCI  30
EVELETH        SUNNY     32  20  61 SW8       29.75F WCI  25
DULUTH HARBOR  SUNNY     37  27  65 SW10      29.80F
TWO HARBORS    SUNNY     41  28  60 S7        29.76F
GRAND MARAIS     N/A     34  26  72 SW12      29.79F WCI  25
G MARAIS ARPRT CLOUDY    28  16  59 CALM      29.73F
$$
MNZ029>031-032-039>041-046>048-054>057-064-232100-
   West Central Minnesota

CITY           SKY/WX    TMP DP  RH WIND       PRES   REMARKS
FERGUS FALLS   PTSUNNY   43  27  52 S13       29.74F
WHEATON        CLOUDY    46  28  49 SE16        N/A
MORRIS         CLOUDY    45  27  49 SE16      29.74F
ALEXANDRIA     SUNNY     44  28  53 S14       29.75F
ELBOW LAKE     CLOUDY    43  28  56 SE13      29.73F
WADENA         SUNNY     45  28  53 S8        29.73F
GLENWOOD       SUNNY     43  28  56 S12       29.77F
APPLETON       CLOUDY    46  28  49 SE9       29.76F
BENSON         SUNNY     46  27  46 S14       29.79F
ORTONVILLE     CLOUDY    54  34  47 N13       29.73F
MADISON        CLOUDY    55  34  44 S10       29.76F
WILLMAR        FAIR      46  30  53 S6        29.82F
$$
MNZ033>034-036-042>043-049>051-058-059-232100-
   Central Minnesota

CITY           SKY/WX    TMP DP  RH WIND       PRES   REMARKS
ST CLOUD       SUNNY     42  24  49 S9        29.81F
SAUK CENTRE    FAIR      43  28  56 S12       29.78F
PAYNESVILLE    MOSUNNY   44  29  56 S13       29.81F
AITKIN         SUNNY     36  25  64 S6        29.76F
PINE RIVER     MOSUNNY   37  27  65 S6        29.78F
BRAINERD       MOSUNNY   40  26  57 S10       29.77F
STAPLES        SUNNY     43  25  49 S9        29.75F
LITTLE FALLS   SUNNY     43  18  36 S8        29.79F
LITCHFIELD     SUNNY     46  27  46 SE3       29.82F
BUFFALO        SUNNY     43  23  46 S7        29.84F
MAPLE LAKE     SUNNY     45  27  49 S7        29.83F
HUTCHINSON     CLOUDY    47  29  50 S5        29.84F
$$
MNZ037-044-045-052-053-232100-
   East Central Minnesota

CITY           SKY/WX    TMP DP  RH WIND       PRES   REMARKS
PRINCETON      SUNNY     45  25  45 S6        29.81F
MORA           SUNNY     37  23  56 SW7       29.84F
CAMBRIDGE      SUNNY     45  27  49 S7        29.82F
RUSH CITY      SUNNY     41  23  48 S7        29.84S
MOOSE LAKE     SUNNY     37  23  56 SW7       29.79F
HINCKLEY       FAIR      37  27  65 SW8       29.82F
CLOQUET        SUNNY     36  23  60 SW10      29.78F
MCGREGOR       SUNNY     37  27  65 S8        29.78F
$$
MNZ071>073-080-081-089-090-097-098-232100-
   Southwest Minnesota

CITY           SKY/WX    TMP DP  RH WIND       PRES   REMARKS
MONTEVIDEO     CLOUDY    46  28  49 S9        29.78F
GRANITE FALLS  CLOUDY    51  32  48 SE10      29.81F
CANBY          CLOUDY    56  35  44 SW12      29.77F
MARSHALL       CLOUDY    56  34  43 SW10      29.79F
REDWOOD FALLS  CLOUDY    48  27  44 S13       29.82F
OLIVIA         SUNNY     46  30  53 S8        29.81F
PIPESTONE      CLOUDY    52  30  43 SW12      29.80F
WINDOM           N/A     54  32  43 S12       29.84F
WORTHINGTON    CLOUDY    53  32  44 SW13      29.83F
JACKSON        CLOUDY    52  32  46 S10       29.85F
SLAYTON        MOSUNNY   52  33  48 SW15      29.83F
$$
MNZ065>067-074>077-082>085-091>093-232100-
   South Central Minnesota

CITY           SKY/WX    TMP DP  RH WIND       PRES   REMARKS
MANKATO        SUNNY     45  25  45 S8        29.85F
NEW ULM        SUNNY     46  27  46 CALM      29.84F
ST JAMES       CLOUDY    48  28  46 S10       29.85F
FAIRMONT       CLOUDY    49  30  48 SW12      29.85F
GLENCOE        SUNNY     46  27  47 S5        29.83F
FARIBAULT      SUNNY     45  25  45 S6        29.86F
OWATONNA       SUNNY     46  27  46 SW7       29.87F
WASECA         SUNNY     45  27  49 S7        29.88F
ALBERT LEA     SUNNY     46  23  39 SW5       29.88F
$$
MNZ078>079-086>088-094>096-232100-
   Southeast Minnesota

CITY           SKY/WX    TMP DP  RH WIND       PRES   REMARKS
ROCHESTER      SUNNY     45  25  45 SW6       29.88F
RED WING       SUNNY     43  18  36 CALM      29.86F
STANTON        SUNNY     46  24  42 S6        29.85F
DODGE CENTER   SUNNY     45  23  42 SW5       29.87F
WINONA         SUNNY     43  23  45 E3        29.89F
AUSTIN         SUNNY     45  25  45 CALM      29.88F
PRESTON        SUNNY     43  22  43 W3        29.89S
$$
ABBREVIATIONS USED IN REMARKS
   TC - TEMPERATURES IN CELSIUS
  WCI - WIND CHILL INDEX
   HX - HEAT INDEX
  VSB - VISIBILITY
$$



USA.gov is the U.S. government's official web portal to all federal, state and local government web resources and services.